Find Starlink 32311

NORAD ID: 62114 Int'l Des: 2024-222 Owner: SPXS Country: US Constellation: starlink operational
LEOCIRCULAR

現在のビュー

3D地球を読み込み中...

About Starlink 32311

Starlink 32311 (NORAD 62114) is a starlink constellation satellite (v2 mini) launched Nov 27, 2024 by SPXS of US. It operates in LEO, CIRCULAR orbit with a mass of 730.00 kg.

次回通過

Passes for default location (London). Set your location on the main map for personalized predictions.

高度履歴

Loading altitude history...

軌道要素

1 62114U 24222A 26262.83183875 .00018548 00000-0 68150-3 0 9996
2 62114 43.0008 104.7910 0001066 274.5347 85.5382 15.27595885102771
Epoch: Sep 19, 2026 • Age: 26 hours

現在のステータス

高度 483.3 km
遠地点 / 近地点 N/A
速度 7.63 km/s
衛星直下点 -3.96°S, 45.09°W
打ち上げ日 Nov 27, 2024
運用期間 1.8 years
タイプ internet

技術仕様

分類 Payload
質量 730.00 kg
乾燥質量 700.00 kg
長さ 0.30 m
スパン 29.00 m
形状 ? Box + pan
製造者 SPXS
バスタイプ Starlink V2M
フェーズステータス In Orbit
所有者/国 SPXS/US

Most Searched